Showing default

WGS 10 (USA 291), 44071

Orbit data source: Space-Track

WGS 10 (USA 291), 44071 is a payload satellite owned by USAF SMC (US) in GEO that was launched on Sat, 16 Mar 2019 UTC via a DELTA 4M+(5,4) launch vehicle from the Air Force Eastern Test Range (AFETR). Payload-class satellites include a variety of spacecraft equipped with specific instruments for various scientific and technological missions. These include communications satellites like Starlink; space stations such as the ISS; scientific satellites like the Hubble; Earth observation satellites from companies like Planet Labs, Umbra, and HawkEye 360; GPS; miniature CubeSats for education and research; and military/defense satellites.

Not visible in the next 10 days
Identifier
44071, 2019-014A
Orbit
GEO
Country
Flag of USUS
Related business
Manufacturer
Boeing/ES
Mission
Operational Defense Communications
Bus & Motor
BSS-702HP, R-4D-15-375
Mass
6,000 kg wet, ~3,400 kg dry
Launch date (UTC)
2019-03-16 (7 years ago)
Launch vehicle
DELTA 4M+(5,4)
Launch site
Air Force Eastern Test Range (AFETR)
Object type
Payload
Rocket body
Debris
Shape & HBR
Box + 2 Pan, 20.4 m
Radar Cross Section
52.962 m², Large (>1 m²)

Expand to show TLE details & history
Last TLE update: 2 days ago

TLE from 2 days ago
0 WGS 10 (USA 291)
1 44071U 19014A   26171.26294977  .00000042  00000-0  00000+0 0  9999
2 44071   0.0187  23.6986 0000413 337.2196  62.5331  1.00272293 26641
Epoch: 2026-06-20T06:18Z
TLE epoch observation values (Epoch: 2026-06-20T06:18:38.860Z)
Latitude
0.02738°
Longitude
60.32587°
Altitude
35,785.14 km
Speed
3.075 km/s
True Right ascension
04h 13m 52s
True Declination
0° 01' 38"
Sunlit
Object was in daylight at epoch
Visualization orbit readout
Latitude
Unknown
Longitude
Unknown
Altitude
Unknown
Speed
Unknown
Apparent Right ascension
Unknown
Apparent Declination
Unknown
Sunlit
N/A
Visualization observer readout
Local Sidereal Time
21:35:58
Azimuth
Unknown
Elevation
Unknown
Doppler factor
Unknown
Orbital elements
Apogee altitude
35,789.264 km
Perigee altitude
35,785.781 km
Semi-major axis
42,165.66 km
Eccentricity
0.00004
Inclination
0.0187°
RAAN
23.6986°
Arg. of periapsis
337.2196°
True anomaly
62.5373°
Mean anomaly
62.5331°
Eccentric anomaly
62.5352°
Mean motion
0.25067 °/min
Orbital period
1,436.14 mins
BSTAR
0
Loading maneuver chart data...
Computing Atmospheric mass density...
Loading historical data...
Loading historical data...
Loading historical data...
Loading historical data...
Loading historical data...
Loading historical data...
Loading historical data...
Other satellites on launch #14 in the year 2019 (2019-03-16 UTC)

Documentation

Showing up to 5 results
|